Current weather by "City, St" or "zip code"  
 

Current Conditions: CORPUS CHRISTI

Mostly Clear


84.9 F

Last Updated on Jun 17 2024, 11:51 PM CDT
Humidity: 68%
Wind Speed: SE 13.9 mph
Barometer 29.81 in
Dewpoint: 73.0 F
Visibility: 10.00 mi
Precip: --
Heat Index: 91.8 F
Wind Chill: NA
Current conditions at:

CORPUS CHRISTI (KCRP)

Lat: 27.77 Lon: 97.5

active severe weather and emergency alerts image image weather storm and storm spotter reports image weather observation monitoring service image
Active
Alerts
Storm Reports Obs
Monitoring

Sign-up For Email & Text Message Weather Alert Notification Services



Advertise Here

Observation History for CORPUS CHRISTI


Time Wind
(mph)
Vis
(mi)
Weather Precip (in) Temperature (F) Relative
Humidity
Wind
Chill
(F)
Heat
Index
(F)
Pressure
Air Dwpt altimeter
(in)
sea level
(mb)
Rmks
11:51 PM CDT SE 13.9 10.00 Mostly Clear -- 84.9 73.0 68% NA 91.8 29.81 1009.2
10:51 PM CDT SE 13.9 10.00 Mostly Clear -- 84.9 73.0 68% NA 91.8 29.79 1008.8
09:51 PM CDT 17.2 10.00 Mostly Cloudy -- 84.0 75.0 74% NA 91.9 29.78 1008.5
08:51 PM CDT SE 17.2 10.00 Partly Cloudy -- 86.0 75.0 70% NA 95.0 29.77 1008.1
07:51 PM CDT 21.9 10.00 Mostly Cloudy and Windy -- 89.1 73.9 61% NA 98.1 29.76 1007.8
06:51 PM CDT SE 21.9 10.00 Mostly Cloudy and Windy -- 90.0 75.0 62% NA 100.6 29.74 1007.1
05:51 PM CDT SE 23.0 10.00 Partly Cloudy and Windy -- 91.9 73.9 56% NA 101.8 29.74 1007.1
04:51 PM CDT 17.2 10.00 Mostly Cloudy -- 91.0 73.9 57% NA 100.8 29.75 1007.5
03:51 PM CDT E 20.8 10.00 Mostly Cloudy and Windy -- 93.9 77.0 58% NA 108.5 29.75 1007.5
02:51 PM CDT 10.00 Mostly Cloudy -- 96.1 77.0 54% NA 111.4 29.76 1007.8
01:51 PM CDT 16.1 10.00 Mostly Cloudy -- 95.0 75.9 54% NA 108.3 29.77 1008.1
10:51 AM CDT SE 9.2 10.00 Mostly Cloudy Trace 89.1 78.1 70% NA 103.3 29.78 1008.5
07:51 AM CDT 5.8 10.00 Partly Cloudy -- 84.9 77.0 77% NA 95.4 29.77 1008.1
06:51 AM CDT SE 6.9 10.00 NULL -- 81.0 75.9 85% NA 87.3 29.76 1007.8
05:51 AM CDT 5.8 10.00 Partly Cloudy -- 82.0 75.9 82% NA 89.4 29.76 1007.8
04:51 AM CDT SE 6.9 10.00 Partly Cloudy -- 82.0 75.0 79% NA 88.7 29.77 1008.1
02:51 AM CDT SE 10.3 10.00 Mostly Clear -- 84.9 75.0 72% NA 93.4 29.78 1008.5
01:51 AM CDT 15.0 10.00 Partly Cloudy -- 86.0 75.0 70% NA 95.0 29.79 1008.8
12:51 AM CDT 10.3 10.00 Partly Cloudy -- 84.9 75.9 75% NA 94.3 29.81 1009.5
11:51 PM CDT SE 13.9 10.00 Partly Cloudy -- 86.0 75.9 72% NA 95.9 29.81 1009.5
10:51 PM CDT SE 13.9 10.00 Partly Cloudy -- 86.0 75.9 72% NA 95.9 29.81 1009.5
08:51 PM CDT 16.1 10.00 Partly Cloudy -- 88.0 75.9 68% NA 98.8 29.77 1008.1
07:51 PM CDT SE 17.2 10.00 Partly Cloudy -- 89.1 75.0 63% NA 99.3 29.77 1008.1
06:51 PM CDT 16.1 10.00 Partly Cloudy -- 91.0 75.0 60% NA 102.0 29.76 1007.8

Regional Weather Observation


CORPUS CHRISTI (KCRP)

Mostly Clear
84.9 F

C. CHRISTI NAS (KNGP)

Mostly Cloudy
82.9 F

KINGSVILLE NAS (KNQI)

Partly Cloudy
84.9 F

PORT ARANSAS (KRAS)

Mostly Cloudy
84.9 F

ORANGE GROVE (KNOG)

Clear
NULL F

ALICE (KALI)

Mostly Cloudy
82.0 F

Advertise Here


Advertise Here